Flag for Switzerland Weather past 2 weeks in Locarno, Ticino, Switzerland

Now
65 °F

Mild.


Feels Like: 65 °F
Forecast: 43 / 53 °F
Wind: 1 mph from East

Location: Locarno-Monti

Current Time: Sep 17, 2014 at 1:52:34 PM

Latest Report: Sep 17, 2014 at 1:00 PM


Visibility: N/A

Pressure: 30.03 "Hg

Humidity: 90%

Dew point: 62 °F

Location of LocarnoLocation

Historic Weather in Locarno — Graph

°F

Locarno temperature yesterday

Maximum temperature yesterday: 72 °F (at 3:00 PM)
Minimum temperature yesterday: 61 °F (at 7:00 AM)
Average temperature yesterday: 66 °F

Past Weeks' High & Low Weather Summary

 TemperatureHumidityPressure
High79 °F (Sep 8, 4:00 PM)100% (Sep 17, 9:00 AM)30.06 "Hg (Sep 17, 9:00 AM)
Low54 °F (Sep 12, 7:00 AM)26% (Sep 2, 1:00 PM)29.75 "Hg (Sep 11, 5:00 PM)
Average66 °F72%29.95 "Hg
* Reported Sep 2 12:00 Noon — Sep 17 12:00 Noon, Locarno, Weather by CustomWeather, © 2014

Note: Actual official high and low records may vary slightly from our data, if they occured in-between our weather recording intervals... More about our weather records

Advertising

Locarno weather history for previous 24 hours

 ConditionsComfort  
Time TempWeatherWind HumidityBarometerVisibility
12:00 PM
Sep 17
64 °FMild.1 mph95%30.04 "HgN/A
11:00 AM63 °FFog.2 mph96%30.04 "Hg2 mi
10:00 AM61 °FCool.1 mph100%30.04 "HgN/A
9:00 AM61 °FCool.1 mph100%30.03 "HgN/A
8:00 AM61 °FRain. Cloudy.1 mph99%30.03 "Hg0 mi
7:00 AM61 °FCool.No wind98%30.03 "HgN/A
6:00 AM61 °FCool.1 mph99%30.03 "HgN/A
5:00 AM60 °FCool.1 mph98%30.04 "HgN/A
4:00 AM61 °FCool.2 mph99%30.03 "HgN/A
3:00 AM62 °FCool.1 mph95%30.03 "HgN/A
2:00 AM62 °FCool.2 mph95%30.04 "HgN/A
1:00 AM63 °FMild.1 mph93%30.03 "HgN/A
12:00 AM64 °FMild.1 mph84%30.03 "HgN/A
11:00 PM
Sep 16
65 °FMild.1 mph80%30.03 "HgN/A
10:00 PM65 °FMild.2 mph78%30.02 "HgN/A
9:00 PM66 °FMild.2 mph76%30.00 "HgN/A
8:00 PM67 °FPassing clouds.2 mph70%29.98 "Hg3 mi
7:00 PM68 °FMild.5 mph70%29.97 "HgN/A
6:00 PM69 °FMild.2 mph66%29.97 "HgN/A
5:00 PM70 °FPartly sunny.2 mph68%29.96 "Hg4 mi
4:00 PM71 °FMild.3 mph65%29.97 "HgN/A
3:00 PM72 °FMild.7 mph66%29.98 "HgN/A
2:00 PM69 °FScattered clouds.5 mph67%29.99 "Hg2 mi
1:00 PM70 °FMild.5 mph70%30.00 "HgN/A
Weather by CustomWeather, © 2014

See weather overviewHow to use our weather pages